sat.trackr.live / text

‹ back to catalog

STARLINK-38071

NORAD 69992 · 2026-159T

PAYLOAD ACTIVE UNKNOWN

§ Identity

Operator
Country
US
Launch date
2026-07-11
Launch site
AFWTR
Launch vehicle
Mass (kg)
RCS (m²)

Purposes: comms

External: N2YO · Heavens-Above · Gunter

§ Orbital elements

Epoch: 2026-09-20T00:20:50.693568Z

Period
92.95 min
Inclination
97.2875°
Eccentricity
0.0000787
Mean motion
15.49212404 rev/d
Perigee alt
418.5 km
Apogee alt
419.6 km
Semi-major
6,797.2 km
B*
6.6442e-4
RAAN
104.8528°
Arg perigee
118.8937°
Mean anomaly
241.2393°
Rev number
1,237

§ Raw data

STARLINK-380711 69992U 26159T   26263.01447562  .00036241  00000+0  66442-3 0  99962 69992  97.2875 104.8528 0000787 118.8937 241.2393 15.49212404 12371

JSON: /api/v1/satellites/69992 · /tle

For live sub-satellite position, see the globe view (requires WebGL).

§ Visibility from observer

Set your observer location to see the next 7 days of passes ≥ 10°. The values pass through the URL so the page stays shareable.

No JS? Fill the form by hand. The geolocation button needs JavaScript.